1532631600.69,29972,20.5,74252.0,6.47,-9.89,-10.05,0,*43
1532631601.92,29973,20.5,74254.0,6.47,-10.27,-10.49,0,*76
1532631603.15,29974,20.44,74252.3,6.47,-10.15,-10.57,0,*7F
1532631604.4,29975,20.44,74250.3,6.47,-10.19,-10.75,0,*72
1532631605.62,29976,20.5,74256.3,6.47,-10.45,-10.89,0,*7B
1532631606.82,29977,20.5,74258.3,6.45,-10.31,-10.85,0,*77
1532631608.02,29978,20.5,74254.3,6.45,-10.31,-10.57,0,*77
1532631609.24,29979,20.44,74252.8,6.45,-10.31,-10.63,0,*71
1532631610.44,29980,20.44,74252.3,6.45,-10.31,-10.49,0,*7F
1532631611.63,29981,20.44,74252.3,6.45,-9.93,-10.15,0,*47
1532631612.87,29982,20.44,74250.5,6.45,-9.53,-9.45,0,*75
1532631614.1,29983,20.44,74254.8,6.45,-9.61,-9.53,0,*72
1532631615.28,29984,20.5,74258.8,6.45,-9.89,-9.93,0,*7F
1532631616.47,29985,20.44,74254.5,6.45,-9.75,-9.79,0,*79
1532631617.74,29986,20.44,74250.8,6.43,-9.53,-9.37,0,*72
1532631618.95,29987,20.44,74252.8,6.43,-8.85,-8.55,0,*7C
1532631620.21,29988,20.44,74254.5,6.43,-8.03,-7.65,0,*71
1532631621.45,29989,20.5,74252.5,6.43,-7.39,-7.23,0,*74
1532631622.64,29990,20.44,74254.5,6.41,-6.31,-6.59,0,*7B
1532631623.85,29991,20.5,74256.0,6.45,-5.47,-6.27,0,*75
1532631625.12,29992,20.44,74252.8,6.43,-5.65,-6.97,0,*7B
1532631626.36,29993,20.44,74252.3,6.43,-6.31,-7.77,0,*77
1532631627.57,29994,20.44,74252.0,6.45,-6.97,-8.29,0,*7E
1532631628.78,29995,20.44,74254.0,6.43,-7.49,-8.33,0,*70
1532631630.01,29996,20.44,74250.5,6.43,-7.91,-8.59,0,*7A
1532631631.22,29997,20.44,74250.0,6.43,-8.17,-8.59,0,*7A
1532631632.4,29998,20.44,74252.8,6.41,-8.41,-8.75,0,*7A
1532631633.62,29999,20.44,74250.3,6.43,-9.01,-9.27,0,*7A
1532631634.87,30000,20.5,74254.5,6.43,-8.85,-9.15,0,*77
1532631636.09,30001,20.5,74258.8,6.43,-8.89,-8.71,0,*79
1532631637.29,30002,20.5,74254.3,6.41,-9.49,-9.23,0,*73
1532631638.51,30003,20.44,74252.3,6.41,-9.71,-9.49,0,*75
1532631639.75,30004,20.5,74252.3,6.41,-9.53,-9.57,0,*7D
1532631640.98,30005,20.5,74254.0,6.41,-9.53,-9.49,0,*73
1532631642.18,30006,20.44,74254.5,6.41,-9.23,-9.01,0,*7B
1532631643.39,30007,20.44,74252.8,6.41,-8.17,-7.91,0,*7B
1532631644.61,30008,20.44,74254.5,6.41,-8.17,-7.35,0,*7A
1532631645.82,30009,20.44,74254.5,6.41,-7.35,-6.69,0,*7C
1532631647.03,30010,20.44,74252.5,6.43,-6.69,-6.35,0,*77
1532631648.25,30011,20.44,74252.0,6.41,-5.81,-6.01,0,*76
1532631649.49,30012,20.5,74252.0,6.43,-6.35,-6.19,0,*72
1532631650.74,30013,20.44,74252.0,6.43,-6.35,-5.31,0,*7A
1532631652.0,30014,20.5,74254.5,6.43,-5.69,-3.71,0,*75
1532631653.24,30015,20.5,74254.5,6.43,-5.31,-2.99,0,*7E
1532631654.48,30016,20.5,74256.3,6.43,-4.53,-2.07,0,*7F
1532631655.72,30017,20.5,74258.5,6.43,-3.87,-1.95,0,*78
1532631656.93,30018,20.5,74256.8,6.43,-4.25,-2.43,0,*70
1532631658.14,30019,20.5,74254.8,6.43,-5.43,-3.07,0,*71
1532631659.36,30020,20.44,74252.0,6.43,-6.35,-3.83,0,*75
1532631660.57,30021,20.44,74252.3,6.43,-5.43,-3.87,0,*72
1532631661.78,30022,20.44,74254.8,6.43,-4.33,-3.87,0,*77
1532631663.02,30023,20.5,74256.0,6.43,-3.95,-3.55,0,*72
1532631664.28,30024,20.44,74252.3,6.43,-4.01,-3.43,0,*78
1532631665.5,30025,20.5,74260.5,6.43,-3.87,-3.19,0,*7F
1532631666.71,30026,20.44,74258.3,6.43,-3.23,-2.35,0,*7D
1532631667.94,30027,20.44,74252.5,6.43,-2.59,-1.59,0,*79
1532631669.18,30028,20.44,74258.3,6.43,-2.31,-1.35,0,*72
1532631670.44,30029,20.44,74258.8,6.43,-2.07,-1.09,0,*79
1532631671.67,30030,20.44,74256.5,6.45,-1.91,-0.93,0,*49
1532631672.87,30031,20.44,74258.8,6.45,-1.95,-0.81,0,*4F
1532631674.06,30032,20.5,74260.3,6.45,-2.15,-0.77,0,*4E
1532631675.24,30033,20.5,74260.3,6.45,-2.27,-0.69,0,*41
1532631676.45,30034,20.5,74260.0,6.45,-2.63,-0.77,0,*49
1532631677.65,30035,20.44,74256.0,6.45,-2.83,-1.13,0,*75
1532631678.86,30036,20.44,74256.0,6.45,-2.79,-1.01,0,*70
1532631680.06,30037,20.44,74256.8,6.45,-2.67,-0.65,0,*4D
1532631681.26,30038,20.44,74256.3,6.45,-2.51,-0.65,0,*47
1532631682.47,30039,20.44,74256.0,6.45,-2.75,-0.69,0,*4C
1532631683.65,30040,20.44,74258.3,6.45,-2.91,-1.17,0,*70
1532631684.84,30041,20.5,74262.5,6.45,-3.03,-1.29,0,*76
1532631686.05,30042,20.44,74258.8,6.47,-4.05,-1.51,0,*79
1532631687.27,30043,20.44,74256.8,6.47,-4.33,-1.55,0,*79
1532631688.49,30044,20.5,74258.8,6.47,-3.79,-1.63,0,*72
1532631689.74,30045,20.44,74254.8,6.47,-3.27,-1.39,0,*77
1532631690.92,30046,20.44,74250.0,6.45,-3.07,-1.51,0,*7A
1532631692.16,30047,20.44,74258.0,6.47,-3.67,-2.39,0,*72
1532631693.41,30048,20.5,74256.5,6.47,-5.23,-3.91,0,*78
1532631694.62,30049,20.44,74252.5,6.47,-6.39,-5.39,0,*75
1532631695.86,30050,20.44,74256.8,6.45,-5.89,-4.85,0,*71
1532631697.1,30051,20.44,74258.0,6.47,-5.07,-4.57,0,*7B
1532631698.34,30052,20.44,74254.8,6.47,-6.27,-6.43,0,*7E
1532631699.6,30053,20.44,74256.3,6.47,-7.77,-7.61,0,*7A
1532631700.82,30054,20.44,74256.0,6.45,-7.57,-7.49,0,*77
1532631702.03,30055,20.44,74256.3,6.47,-8.55,-8.55,0,*7B
1532631703.27,30056,20.44,74256.0,6.47,-9.11,-9.05,0,*7D
1532631704.5,30057,20.44,74256.5,6.45,-9.61,-8.81,0,*74
1532631705.71,30058,20.5,74258.3,6.45,-8.81,-8.37,0,*79
1532631706.93,30059,20.44,74256.3,6.47,-9.05,-8.93,0,*79
1532631708.13,30060,20.44,74256.5,6.45,-9.79,-10.15,0,*4D
1532631709.32,30061,20.44,74256.3,6.45,-10.31,-10.05,0,*79
1532631710.53,30062,20.5,74262.8,6.45,-10.15,-10.01,0,*78
1532631711.71,30063,20.44,74256.0,6.45,-10.05,-9.89,0,*40
1532631712.92,30064,20.44,74262.0,6.45,-10.45,-10.35,0,*7C
1532631714.12,30065,20.44,74256.8,6.45,-10.35,-10.35,0,*7A
1532631715.32,30066,20.44,74256.5,6.45,-10.45,-10.05,0,*7D
1532631716.54,30067,20.44,74256.5,6.43,-10.49,-10.09,0,*7A
1532631717.73,30068,20.44,74260.0,6.41,-10.53,-9.93,0,*47
1532631718.97,30069,20.44,74256.0,6.43,-10.53,-9.83,0,*45
1532631720.17,30070,20.44,74260.0,6.41,-10.53,-9.71,0,*42
1532631721.4,30071,20.44,74258.8,6.43,-10.53,-9.57,0,*45
1532631722.62,30072,20.44,74256.3,6.41,-10.31,-9.15,0,*46
1532631723.81,30073,20.44,74258.0,6.41,-9.79,-8.97,0,*78
1532631725.02,30074,20.44,74258.5,6.41,-9.53,-8.89,0,*78
1532631726.23,30075,20.44,74258.8,6.41,-9.53,-8.97,0,*76
1532631727.45,30076,20.44,74256.3,6.41,-10.09,-9.37,0,*49
1532631728.64,30077,20.44,74256.5,6.41,-10.49,-9.71,0,*4E
1532631729.87,30078,20.5,74258.3,6.39,-10.23,-9.71,0,*42
1532631731.08,30079,20.44,74256.3,6.39,-9.97,-9.27,0,*77
1532631732.32,30080,20.44,74258.8,6.39,-8.75,-7.95,0,*7B
1532631733.55,30081,20.44,74256.8,6.39,-8.33,-7.65,0,*77
1532631734.74,30082,20.44,74258.8,6.41,-7.15,-6.73,0,*76
1532631735.93,30083,20.44,74256.3,6.41,-4.61,-4.49,0,*7C
1532631737.15,30084,20.44,74254.0,6.39,-4.29,-3.75,0,*70
1532631738.32,30085,20.44,74256.3,6.41,-4.45,-3.23,0,*77
1532631739.51,30086,20.44,74256.3,6.41,-4.49,-3.19,0,*71
1532631740.73,30087,20.44,74258.0,6.41,-5.81,-4.21,0,*79
1532631741.94,30088,20.44,74256.0,6.41,-7.91,-6.47,0,*77
1532631743.13,30089,20.44,74256.5,6.41,-8.59,-7.23,0,*7E
1532631744.35,30090,20.44,74254.3,6.41,-8.41,-7.77,0,*7E
1532631745.57,30091,20.44,74256.5,6.41,-8.21,-7.73,0,*7D
1532631746.78,30092,20.44,74256.5,6.41,-8.55,-7.95,0,*75
1532631747.99,30093,20.44,74256.3,6.41,-8.29,-7.95,0,*7F
1532631749.2,30094,20.44,74256.0,6.41,-7.95,-7.53,0,*7A
1532631750.44,30095,20.44,74256.8,6.43,-7.39,-6.81,0,*71
1532631751.68,30096,20.44,74256.0,6.41,-7.01,-6.97,0,*7C
1532631752.93,30097,20.44,74258.8,6.41,-7.61,-7.73,0,*70
1532631754.11,30098,20.44,74260.0,6.41,-8.21,-8.33,0,*7F
1532631755.35,30099,20.44,74256.5,6.43,-9.01,-9.15,0,*7A
1532631756.6,30100,20.44,74258.3,6.41,-9.11,-9.11,0,*7C
1532631757.79,30101,20.44,74258.0,6.41,-8.85,-8.71,0,*76
1532631759.03,30102,20.44,74258.3,6.39,-8.81,-8.75,0,*7A
1532631760.25,30103,20.44,74260.0,6.39,-8.63,-8.89,0,*74
1532631761.46,30104,20.44,74260.0,6.37,-8.37,-8.51,0,*79
1532631762.7,30105,20.44,74258.0,6.39,-7.87,-7.27,0,*7C
1532631763.92,30106,20.44,74258.3,6.39,-6.73,-6.05,0,*74
1532631765.19,30107,20.44,74258.3,6.39,-5.85,-4.69,0,*77
1532631766.41,30108,20.44,74258.3,6.41,-5.55,-4.01,0,*74
1532631767.59,30109,20.44,74260.0,6.41,-5.43,-3.95,0,*78
1532631768.81,30110,20.44,74260.3,6.41,-5.23,-4.45,0,*7C
1532631770.05,30111,20.44,74256.0,6.39,-5.43,-5.27,0,*71
1532631771.27,30112,20.44,74258.3,6.41,-5.31,-5.51,0,*79
1532631772.54,30113,20.44,74256.0,6.39,-5.61,-5.27,0,*73
1532631773.78,30114,20.44,74256.0,6.39,-6.27,-5.35,0,*76
1532631775.02,30115,20.44,74256.3,6.39,-5.97,-4.77,0,*78
1532631776.24,30116,20.44,74258.8,6.39,-6.13,-4.25,0,*73
1532631777.47,30117,20.44,74260.5,6.39,-6.35,-4.25,0,*76
1532631778.7,30118,20.44,74258.8,6.41,-5.77,-3.47,0,*70
1532631779.9,30119,20.44,74262.5,6.41,-4.77,-2.19,0,*7A
1532631781.15,30120,20.44,74260.5,6.41,-5.89,-2.67,0,*79
1532631782.39,30121,20.44,74260.8,6.39,-7.01,-4.13,0,*70
1532631783.61,30122,20.44,74260.5,6.39,-7.53,-5.43,0,*70
1532631784.83,30123,20.44,74262.5,6.41,-7.73,-6.35,0,*7E
1532631786.06,30124,20.44,74258.3,6.41,-8.03,-6.93,0,*7D
1532631787.25,30125,20.5,74260.3,6.41,-8.21,-7.49,0,*7A
1532631788.49,30126,20.44,74260.8,6.41,-7.61,-6.97,0,*70
1532631789.71,30127,20.44,74256.5,6.41,-7.01,-6.55,0,*79
1532631790.94,30128,20.44,74260.8,6.41,-7.39,-6.93,0,*77
1532631792.19,30129,20.44,74256.8,6.41,-7.73,-7.61,0,*74
1532631793.41,30130,20.44,74262.3,6.41,-8.45,-8.07,0,*79
1532631794.6,30131,20.44,74260.0,6.41,-9.23,-8.33,0,*7E
1532631795.86,30132,20.44,74256.3,6.39,-9.53,-7.95,0,*76
1532631797.07,30133,20.44,74258.8,6.41,-9.37,-7.53,0,*70
1532631798.32,30134,20.44,74256.3,6.43,-9.37,-7.15,0,*77
1532631799.54,30135,20.44,74260.5,6.41,-9.37,-7.23,0,*71
1532631800.8,30136,20.44,74258.3,6.39,-9.53,-7.65,0,*7D
1532631802.07,30137,20.44,74258.5,6.39,-9.53,-7.99,0,*7F
1532631803.3,30138,20.5,74262.0,6.39,-9.53,-8.21,0,*7C
1532631804.54,30139,20.44,74260.8,6.39,-8.59,-7.27,0,*7F
1532631805.78,30140,20.44,74260.0,6.39,-7.87,-7.05,0,*7D
1532631807.03,30141,20.44,74262.3,6.39,-6.35,-5.31,0,*71
1532631808.25,30142,20.44,74260.8,6.39,-3.91,-2.91,0,*74
1532631809.49,30143,20.44,74260.8,6.39,-2.75,-1.51,0,*71
1532631810.71,30144,20.44,74260.8,6.39,-2.27,-1.21,0,*76
1532631811.94,30145,20.44,74260.8,6.39,-2.15,-1.09,0,*7C
1532631813.22,30146,20.44,74262.8,6.39,-2.47,-1.39,0,*7B
1532631814.44,30147,20.5,74264.3,6.39,-3.35,-1.51,0,*70
1532631815.68,30148,20.44,74266.3,6.39,-4.49,-2.03,0,*77
1532631816.9,30149,20.44,74262.5,6.41,-5.55,-2.55,0,*76
1532631818.09,30150,20.44,74260.5,6.41,-5.43,-1.79,0,*74
1532631819.33,30151,20.44,74260.8,6.41,-5.77,-1.91,0,*74
1532631820.54,30152,20.44,74262.5,6.41,-4.89,-1.21,0,*7C
1532631821.73,30153,20.44,74260.0,6.41,-4.61,-0.81,0,*40
1532631822.94,30154,20.44,74264.3,6.41,-5.51,-1.09,0,*74
1532631824.19,30155,20.44,74264.3,6.41,-6.19,-1.99,0,*73
1532631825.45,30156,20.44,74262.5,6.43,-7.61,-3.47,0,*7D
1532631826.67,30157,20.44,74262.0,6.41,-8.55,-4.89,0,*73
1532631827.92,30158,20.44,74258.0,6.43,-8.85,-5.93,0,*79
1532631829.12,30159,20.44,74260.3,6.41,-8.89,-6.55,0,*7F
1532631830.33,30160,20.44,74260.8,6.41,-8.97,-6.93,0,*70
1532631831.55,30161,20.44,74260.3,6.41,-9.15,-7.53,0,*77
1532631832.79,30162,20.44,74260.5,6.43,-9.27,-7.73,0,*75
1532631834.06,30163,20.44,74260.8,6.43,-9.37,-8.03,0,*7D
1532631835.28,30164,20.44,74262.5,6.41,-9.23,-7.77,0,*71
1532631836.52,30165,20.44,74262.0,6.41,-9.15,-7.91,0,*7D
1532631837.74,30166,20.44,74260.5,6.41,-8.75,-7.77,0,*71
1532631838.98,30167,20.44,74258.5,6.41,-8.03,-6.93,0,*7A
1532631840.2,30168,20.44,74260.0,6.43,-6.73,-5.55,0,*77
1532631841.44,30169,20.44,74260.8,6.39,-5.15,-4.29,0,*72
1532631842.62,30170,20.44,74256.5,6.41,-4.37,-3.31,0,*7A
1532631843.87,30171,20.44,74256.3,6.39,-4.25,-2.59,0,*78
1532631845.14,30172,20.44,74258.3,6.39,-3.59,-1.87,0,*77
1532631846.39,30173,20.44,74258.5,6.39,-3.39,-1.35,0,*79
1532631847.59,30174,20.44,74256.8,6.41,-3.23,-1.09,0,*75
1532631848.83,30175,20.44,74260.8,6.41,-3.47,-0.85,0,*43
1532631850.06,30176,20.44,74262.5,6.41,-3.63,-0.85,0,*46
1532631851.28,30177,20.44,74260.8,6.43,-4.37,-1.21,0,*7C
1532631852.49,30178,20.44,74262.5,6.41,-5.39,-2.07,0,*79
1532631853.7,30179,20.44,74260.8,6.43,-6.31,-3.19,0,*7F
1532631854.95,30180,20.44,74262.3,6.43,-7.35,-4.37,0,*77
1532631856.18,30181,20.44,74262.5,6.43,-8.21,-5.77,0,*79
1532631857.43,30182,20.44,74258.5,6.43,-8.71,-6.93,0,*76
1532631858.67,30183,20.44,74260.0,6.41,-9.37,-7.65,0,*7E
1532631859.91,30184,20.44,74260.3,6.43,-9.67,-7.95,0,*71
1532631861.09,30185,20.44,74260.8,6.41,-9.97,-8.33,0,*7E
1532631862.27,30186,20.44,74260.5,6.41,-10.05,-8.41,0,*4B
1532631863.51,30187,20.44,74260.3,6.43,-9.79,-7.73,0,*75
1532631864.73,30188,20.44,74260.8,6.41,-8.55,-5.93,0,*7B
1532631865.94,30189,20.44,74258.3,6.45,-7.05,-4.05,0,*7A
1532631867.13,30190,20.44,74262.8,6.41,-6.59,-3.35,0,*7A
1532631868.4,30191,20.44,74258.3,6.43,-5.31,-2.07,0,*74
1532631869.61,30192,20.44,74262.0,6.41,-4.33,-0.97,0,*4D
1532631870.82,30193,20.44,74258.3,6.41,-3.71,-0.29,0,*48
1532631872.05,30194,20.44,74258.3,6.41,-3.71,-0.23,0,*45
1532631873.23,30195,20.44,74260.0,6.41,-4.49,-0.61,0,*4E
1532631874.42,30196,20.44,74260.0,6.41,-5.55,-1.25,0,*70
1532631875.64,30197,20.44,74258.5,6.41,-6.31,-2.07,0,*73
1532631876.89,30198,20.44,74262.0,6.43,-6.81,-2.55,0,*72
1532631878.16,30199,20.44,74260.8,6.43,-5.77,-2.07,0,*7E
1532631879.4,30200,20.44,74258.5,6.41,-5.15,-1.91,0,*77
1532631880.65,30201,20.5,74262.3,6.41,-5.03,-2.11,0,*7A
1532631881.89,30202,20.44,74260.8,6.41,-5.23,-2.55,0,*7B
1532631883.1,30203,20.44,74256.5,6.41,-4.99,-2.47,0,*79
1532631884.32,30204,20.44,74256.8,6.43,-4.33,-2.43,0,*78
1532631885.54,30205,20.44,74256.3,6.41,-3.71,-2.23,0,*7C
1532631886.76,30206,20.44,74256.3,6.41,-3.43,-2.23,0,*7E
1532631888.03,30207,20.44,74256.5,6.43,-3.47,-2.55,0,*78
1532631889.27,30208,20.44,74254.5,6.43,-3.47,-2.43,0,*70
1532631890.48,30209,20.44,74258.3,6.41,-3.19,-1.83,0,*77
1532631891.72,30210,20.44,74256.8,6.43,-2.83,-1.35,0,*72
1532631892.97,30211,20.44,74256.3,6.43,-2.59,-0.97,0,*4D
1532631894.22,30212,20.44,74254.0,6.43,-2.11,-0.49,0,*41
1532631895.44,30213,20.44,74256.0,6.43,-1.91,-0.07,0,*71
1532631896.68,30214,20.44,74254.5,6.43,-1.33,0.51,0,*60
1532631897.93,30215,20.44,74254.0,6.43,-0.93,0.91,0,*56
1532631899.16,30216,20.44,74254.0,6.43,-0.73,1.17,0,*64
1532631900.35,30217,20.44,74258.0,6.41,-0.61,1.47,0,*61
1532631901.58,30218,20.44,74258.8,6.43,-0.57,1.51,0,*6E
1532631902.77,30219,20.44,74262.0,6.45,-0.65,1.51,0,*68
1532631904.03,30220,20.44,74256.0,6.47,-0.93,1.33,0,*6D
1532631905.23,30221,20.44,74252.8,6.45,-1.43,1.01,0,*53
1532631906.43,30222,20.44,74256.5,6.45,-1.79,0.91,0,*61
1532631907.63,30223,20.44,74258.5,6.45,-2.27,0.67,0,*61
1532631908.85,30224,20.44,74256.0,6.47,-2.79,0.17,0,*68
1532631910.03,30225,20.44,74256.0,6.45,-3.19,-0.53,0,*41
1532631911.25,30226,20.44,74258.0,6.45,-3.67,-1.21,0,*7F
1532631912.45,30227,20.44,74252.5,6.45,-4.09,-1.95,0,*7E
1532631913.68,30228,20.44,74258.8,6.45,-4.69,-2.55,0,*78
1532631914.86,30229,20.44,74252.5,6.45,-4.99,-3.19,0,*7F
1532631916.09,30230,20.44,74256.3,6.45,-5.19,-3.59,0,*7A
1532631917.33,30231,20.44,74256.8,6.47,-5.19,-4.09,0,*7B
1532631918.54,30232,20.44,74258.0,6.45,-5.19,-4.29,0,*78
1532631919.78,30233,20.44,74256.0,6.47,-5.39,-4.73,0,*76
1532631921.02,30234,20.44,74256.0,6.45,-5.73,-5.27,0,*7D
1532631922.26,30235,20.44,74262.8,6.43,-5.77,-5.39,0,*71
1532631923.48,30236,20.44,74260.5,6.45,-5.51,-5.11,0,*7A
1532631924.71,30237,20.44,74260.3,6.45,-5.11,-4.81,0,*77
1532631925.96,30238,20.44,74260.8,6.45,-5.23,-5.07,0,*76
1532631927.17,30239,20.44,74260.0,6.45,-5.65,-5.47,0,*71
1532631928.44,30240,20.44,74262.8,6.43,-5.77,-5.69,0,*76
1532631929.68,30241,20.44,74266.3,6.43,-5.77,-5.43,0,*7F
1532631930.95,30242,20.44,74264.8,6.43,-5.93,-5.27,0,*74
1532631932.22,30243,20.44,74262.5,6.43,-5.81,-4.77,0,*72
1532631933.46,30244,20.44,74258.8,6.43,-5.31,-4.61,0,*79
1532631934.7,30245,20.44,74260.0,6.45,-5.07,-4.69,0,*73
1532631935.95,30246,20.44,74260.5,6.45,-5.23,-5.11,0,*78
1532631937.21,30247,20.44,74260.3,6.43,-5.77,-5.77,0,*7E
1532631938.42,30248,20.44,74262.5,6.43,-6.43,-6.69,0,*79
1532631939.67,30249,20.44,74260.3,6.43,-6.97,-7.11,0,*7F
1532631940.91,30250,20.44,74260.8,6.43,-7.27,-7.11,0,*7D
1532631942.1,30251,20.44,74262.5,6.41,-7.49,-7.15,0,*72
1532631943.34,30252,20.44,74262.0,6.43,-7.39,-6.81,0,*78
1532631944.56,30253,20.44,74262.0,6.43,-6.81,-6.31,0,*70
1532631945.78,30254,20.44,74260.0,6.41,-6.35,-5.65,0,*78
1532631947.05,30255,20.44,74256.8,6.43,-6.23,-5.23,0,*7E
1532631948.27,30256,20.44,74260.3,6.43,-6.01,-4.53,0,*7B
1532631949.5,30257,20.44,74260.5,6.41,-5.23,-3.47,0,*79
1532631950.72,30258,20.44,74258.8,6.43,-3.87,-2.35,0,*78
1532631951.96,30259,20.44,74258.8,6.43,-3.43,-2.35,0,*71
1532631953.2,30260,20.44,74260.3,6.43,-2.87,-2.11,0,*74
1532631954.43,30261,20.44,74260.3,6.43,-2.79,-1.95,0,*7B
1532631955.65,30262,20.44,74260.8,6.41,-2.71,-1.79,0,*70
1532631956.89,30263,20.44,74260.8,6.43,-2.47,-1.21,0,*7B
1532631958.1,30264,20.44,74260.8,6.43,-1.59,-0.49,0,*4F
1532631959.33,30265,20.44,74262.0,6.43,-1.21,0.25,0,*66
1532631960.55,30266,20.44,74262.3,6.43,-0.49,0.79,0,*53
1532631961.76,30267,20.44,74256.8,6.43,0.01,1.29,0,*77
1532631962.98,30268,20.44,74260.5,6.43,0.17,1.83,0,*4F
1532631964.2,30269,20.44,74256.0,6.45,0.59,2.13,0,*48
1532631965.38,30270,20.44,74260.3,6.45,0.43,2.01,0,*48
1532631966.6,30271,20.44,74258.3,6.45,0.17,1.85,0,*47
1532631967.81,30272,20.44,74258.5,6.47,0.09,2.05,0,*72
1532631969.0,30273,20.44,74258.3,6.45,0.17,2.27,0,*4E
1532631970.24,30274,20.44,74258.3,6.47,0.33,2.17,0,*4E
1532631971.48,30275,20.44,74256.8,6.47,0.41,2.05,0,*49
1532631972.68,30276,20.44,74256.5,6.47,0.09,1.75,0,*72
1532631973.9,30277,20.44,74258.5,6.47,-0.29,1.55,0,*6E
1532631975.12,30278,20.44,74258.3,6.47,-0.57,1.43,0,*6F
1532631976.34,30279,20.44,74256.8,6.47,-0.77,1.51,0,*6F
1532631977.57,30280,20.44,74256.8,6.47,-0.81,1.51,0,*60
1532631978.8,30281,20.44,74256.0,6.47,-0.69,1.63,0,*66
1532631980.06,30282,20.44,74256.5,6.47,-1.05,1.33,0,*5B
1532631981.29,30283,20.44,74256.0,6.47,-1.33,0.95,0,*62
1532631982.54,30284,20.44,74256.8,6.47,-1.87,0.17,0,*60
1532631983.74,30285,20.44,74256.8,6.49,-2.91,-1.01,0,*70
1532631984.97,30286,20.44,74256.3,6.49,-4.01,-2.23,0,*7F
1532631986.18,30287,20.44,74256.3,6.51,-4.53,-3.15,0,*74
1532631987.38,30288,20.44,74258.0,6.49,-4.65,-3.67,0,*72
1532631988.59,30289,20.44,74258.0,6.49,-4.57,-3.55,0,*73
1532631989.81,30290,20.44,74258.3,6.49,-4.01,-2.91,0,*71
1532631991.08,30291,20.44,74256.0,6.51,-3.43,-2.67,0,*71
1532631992.29,30292,20.44,74256.8,6.51,-3.19,-2.43,0,*7B
1532631993.51,30293,20.44,74258.3,6.51,-3.11,-2.35,0,*73
1532631994.73,30294,20.44,74256.3,6.49,-3.39,-2.59,0,*7D
1532631995.94,30295,20.44,74262.0,6.49,-3.51,-2.79,0,*70
1532631997.17,30296,20.44,74260.3,6.51,-3.83,-2.87,0,*74
1532631998.35,30297,20.44,74256.0,6.49,-4.05,-2.91,0,*72
1532631999.54,30298,20.44,74256.8,6.49,-4.13,-3.15,0,*77
1532632000.77,30299,20.44,74254.8,6.51,-4.49,-3.51,0,*70
1532632001.97,30300,20.44,74256.5,6.49,-4.53,-3.67,0,*76
1532632003.19,30301,20.44,74258.3,6.51,-4.65,-3.75,0,*78
1532632004.4,30302,20.44,74254.8,6.49,-4.69,-3.91,0,*74
1532632005.6,30303,20.44,74256.5,6.49,-4.93,-4.17,0,*79
1532632006.81,30304,20.44,74254.3,6.49,-5.15,-4.45,0,*76
1532632008.03,30305,20.44,74252.8,6.49,-5.35,-4.69,0,*7B
1532632009.27,30306,20.44,74260.0,6.49,-5.73,-5.03,0,*77
1532632010.52,30307,20.44,74258.3,6.47,-6.13,-5.23,0,*7F
1532632011.78,30308,20.44,74258.5,6.47,-6.27,-5.23,0,*77
1532632013.03,30309,20.44,74256.8,6.49,-5.81,-4.69,0,*78
1532632014.24,30310,20.44,74260.0,6.49,-5.61,-4.57,0,*73
1532632015.43,30311,20.44,74258.5,6.49,-5.35,-4.41,0,*74
1532632016.67,30312,20.44,74258.8,6.47,-5.11,-4.09,0,*73
1532632017.87,30313,20.44,74256.0,6.49,-4.53,-3.51,0,*71
1532632019.06,30314,20.44,74258.5,6.49,-4.05,-3.03,0,*72
1532632020.26,30315,20.44,74256.8,6.49,-3.79,-2.87,0,*72
1532632021.5,30316,20.44,74258.5,6.49,-3.67,-2.63,0,*74
1532632022.74,30317,20.44,74256.0,6.49,-3.55,-2.47,0,*72
1532632023.97,30318,20.44,74256.0,6.49,-3.79,-2.71,0,*76
1532632025.2,30319,20.44,74260.3,6.49,-4.01,-2.99,0,*79
1532632026.41,30320,20.44,74256.8,6.49,-4.25,-3.55,0,*74
1532632027.61,30321,20.44,74262.3,6.49,-4.17,-3.51,0,*70
1532632028.82,30322,20.44,74260.8,6.49,-4.25,-3.47,0,*75
1532632030.03,30323,20.44,74256.3,6.49,-4.65,-3.67,0,*72
1532632031.25,30324,20.44,74260.8,6.49,-5.15,-3.91,0,*7A
1532632032.47,30325,20.44,74258.0,6.49,-5.15,-3.79,0,*7D
1532632033.7,30326,20.44,74260.5,6.51,-4.73,-3.31,0,*7A
1532632034.92,30327,20.44,74262.8,6.49,-3.87,-2.71,0,*7B
1532632036.14,30328,20.44,74262.5,6.49,-3.15,-2.03,0,*7A
1532632037.38,30329,20.44,74262.8,6.51,-2.83,-1.87,0,*73
1532632038.6,30330,20.44,74262.8,6.49,-3.35,-1.99,0,*71
1532632039.82,30331,20.44,74258.3,6.49,-3.35,-1.83,0,*7B
1532632041.06,30332,20.44,74260.8,6.51,-2.55,-0.73,0,*48
1532632042.28,30333,20.44,74262.8,6.51,-1.71,-0.19,0,*40
1532632043.47,30334,20.44,74260.8,6.49,-1.63,-0.15,0,*41
1532632044.7,30335,20.44,74262.0,6.49,-1.83,-0.27,0,*4F
1532632045.94,30336,20.44,74260.5,6.51,-2.07,-0.33,0,*4F
1532632047.13,30337,20.44,74260.0,6.49,-2.23,-0.49,0,*4C
1532632048.37,30338,20.44,74258.0,6.51,-2.07,-0.57,0,*43
1532632049.61,30339,20.44,74258.3,6.51,-2.35,-1.05,0,*75
1532632050.82,30340,20.44,74256.8,6.49,-2.67,-1.29,0,*7B
1532632052.06,30341,20.44,74262.8,6.51,-2.67,-1.21,0,*7B
1532632053.31,30342,20.44,74262.5,6.51,-2.75,-1.21,0,*7B
1532632054.53,30343,20.44,74260.0,6.51,-2.95,-1.25,0,*70
1532632055.74,30344,20.44,74264.3,6.51,-3.11,-1.25,0,*7A
1532632056.96,30345,20.44,74262.8,6.51,-3.07,-1.21,0,*78
1532632058.17,30346,20.44,74260.0,6.51,-3.19,-1.25,0,*70
1532632059.39,30347,20.44,74258.8,6.51,-2.99,-1.21,0,*7C
1532632060.65,30348,20.44,74256.0,6.51,-2.55,-0.85,0,*4C
1532632061.86,30349,20.44,74262.0,6.51,-2.35,-0.73,0,*42
1532632063.1,30350,20.44,74258.3,6.51,-1.95,-0.57,0,*45
1532632064.31,30351,20.44,74256.8,6.51,-1.71,-0.29,0,*47
1532632065.55,30352,20.44,74258.5,6.51,-1.83,-0.11,0,*42
1532632066.77,30353,20.44,74258.0,6.51,-2.87,-0.37,0,*40
1532632068.01,30354,20.44,74260.8,6.51,-3.51,-0.57,0,*4B
1532632069.23,30355,20.44,74260.0,6.51,-3.75,-0.81,0,*47
1532632070.49,30356,20.44,74258.3,6.51,-3.59,-0.85,0,*4E
1532632071.73,30357,20.44,74258.5,6.51,-2.67,-0.41,0,*4B
1532632072.94,30358,20.44,74256.3,6.51,-2.43,-0.29,0,*4C
1532632074.15,30359,20.44,74258.0,6.51,-2.43,-0.07,0,*71
1532632075.37,30360,20.44,74256.3,6.51,-2.59,0.01,0,*5B
1532632076.6,30361,20.44,74260.8,6.51,-2.75,0.01,0,*54
1532632077.82,30362,20.44,74256.3,6.51,-2.95,-0.19,0,*4D
1532632079.05,30363,20.44,74258.5,6.51,-3.43,-0.61,0,*49
1532632080.29,30364,20.44,74254.5,6.53,-3.95,-1.13,0,*73
1532632081.5,30365,20.44,74256.3,6.53,-4.09,-1.33,0,*72
1532632082.71,30366,20.44,74258.5,6.53,-4.09,-1.59,0,*7D
1532632083.98,30367,20.44,74256.0,6.53,-4.01,-1.95,0,*74
1532632085.25,30368,20.44,74256.0,6.53,-4.01,-2.11,0,*74
1532632086.46,30369,20.44,74256.8,6.53,-4.09,-2.43,0,*7A
1532632087.71,30370,20.44,74258.8,6.51,-4.13,-2.55,0,*7C
1532632088.91,30371,20.44,74256.5,6.53,-4.37,-2.83,0,*72
1532632090.13,30372,20.44,74260.0,6.53,-4.33,-2.87,0,*71
1532632091.34,30373,20.44,74258.0,6.53,-4.37,-2.99,0,*7B
1532632092.56,30374,20.44,74260.0,6.51,-4.21,-3.11,0,*78
1532632093.79,30375,20.44,74256.8,6.51,-3.75,-2.83,0,*75
1532632095.04,30376,20.44,74258.5,6.59,-3.51,-2.67,0,*72
1532632096.31,30377,20.44,74258.5,6.53,-3.47,-2.75,0,*7D
1532632097.55,30378,20.44,74258.8,6.53,-3.35,-2.75,0,*77
1532632098.8,30379,20.44,74252.5,6.53,-3.35,-2.75,0,*76
1532632100.02,30380,20.44,74256.8,6.57,-3.39,-2.79,0,*74
1532632101.23,30381,20.44,74256.3,6.57,-3.39,-2.79,0,*75
1532632102.47,30382,20.44,74256.5,6.53,-3.59,-3.23,0,*7A
1532632103.71,30383,20.44,74260.5,6.53,-3.75,-3.51,0,*70
1532632104.95,30384,20.44,74260.8,6.53,-3.95,-4.01,0,*7B
1532632106.16,30385,20.44,74258.0,6.53,-4.09,-4.33,0,*79
1532632107.4,30386,20.44,74262.5,6.53,-4.09,-4.73,0,*7E
1532632108.63,30387,20.44,74260.3,6.53,-4.21,-4.65,0,*72
1532632109.87,30388,20.44,74256.3,6.53,-4.01,-4.41,0,*79
1532632111.12,30389,20.44,74262.0,6.53,-4.01,-4.41,0,*78
1532632112.33,30390,20.44,74262.5,6.53,-4.09,-4.41,0,*78
1532632113.56,30391,20.44,74262.0,6.57,-3.79,-4.09,0,*71
1532632114.8,30392,20.44,74260.3,6.57,-3.59,-3.83,0,*75
1532632116.06,30393,20.44,74260.8,6.53,-3.43,-3.63,0,*75